Simultaneous Nadir Overpasses (SNOs) Predictions

Prediction of SNOs between LANDSAT-8 and METOP-A Satellite Orbit:

Table of predicted SNOs for the next 14.0 days since TLE Epoch: 7/18/2020
Index Date (LANDSAT-8) Time (LANDSAT-8) Lat,Lon (LANDSAT-8) SZA (LANDSAT-8 ) Date (METOP-A) Time (METOP-A) Lat,Lon (METOP-A) SZA (METOP-A ) Distance(km) Time Diff (sec)
1 07/20/2020 03:17:38 -81.47, -2.98 116.53 07/20/2020 03:17:09 -81.46, -3.00 116.55 0.49 29
2 07/20/2020 04:07:05 81.46, 164.41 63.44 07/20/2020 04:07:50 81.46, 164.35 63.46 1.34 45
3 07/22/2020 22:51:54 -81.47, 63.54 115.97 07/22/2020 22:51:30 -81.46, 63.54 115.99 1.10 24
4 07/22/2020 23:41:21 81.46,-129.10 64.00 07/22/2020 23:42:11 81.46,-129.14 64.02 0.74 50
5 07/25/2020 18:26:10 -81.46, 129.65 115.42 07/25/2020 18:25:51 -81.46, 129.68 115.42 0.98 19
6 07/25/2020 19:15:36 81.46, -62.62 64.60 07/25/2020 19:16:31 81.46, -62.64 64.62 0.35 55
7 07/28/2020 14:00:26 -81.46,-163.86 114.78 07/28/2020 14:00:12 -81.46,-163.81 114.77 0.90 14
8 07/28/2020 14:49:52 81.46, 3.84 65.25 07/28/2020 14:50:52 81.46, 3.85 65.27 0.58 60
9 07/31/2020 09:34:42 -81.46, -97.39 114.09 07/31/2020 09:34:33 -81.46, -97.30 114.08 1.38 9
